Portada
METAR-TAF:

METAR-TAF

Aeropuertos :

Jark, Irán

latitud: 29-15-34N, longitud: 50-19-24E, altitud: 5 m

Observación

El informe se hizo hace 10 horas y 31 minutos, a las 15:00 UTC
Viento 8 kt del sureste
Temperatura 24°C
Humedad 74%
Presión 1008 hPa
Visibilidad 10 km o más
Nubes dispersas a una altura de 4000 ft

METAR: OIBQ 021500Z 14008KT 9999 SCT040 24/19 Q1008

Hora: 06:01 (01:31 UTC)


TAF: falta

Observaciones y pronósticos meteorológicos de más de 4000 aeropuertos (mensajes METAR y TAF).

Los puntos amarillos y rojos representan las estaciones disponibles.

Ponga el ratón en el punto deseado para ver el nombre de la estación.

Haga clic para ver las observaciones y los pronósticos meteorológicos.

Para cambiar el mapa : haga clic en los botones verdes con una cruz de color negro para hacer un zoom, en el botón verde con un guión para alejar o en las flechas verdes para mapas adyacentes.


METAR-TAF: